Regional Weather Roundup
Issued by NWS

Home | Current Version | Previous Version | Graphics & Text | Print | Product List | Glossary On
Versions: 1 2 3 4 5 6 7 8 9 10 11 12 13 14 15 16 17 18 19 20 21 22 23 24 25 26 27 28 29 30 31 32 33 34 35 36 37 38 39 40 41 42 43 44 45 46 47 48 49 50
000
ASUS44 KMEG 041710
RWRTN
TENNESSEE HOURLY STATE WEATHER ROUNDUP
NATIONAL WEATHER SERVICE MEMPHIS TN
1200 PM CDT TUE AUG 04 2015

TNZ002-004-019-021-049-052-054-088>092-041800-
WEST TENNESSEE

CITY           SKY/WX    TMP DP  RH WIND       PRES   REMARKS
MEMPHIS INTL   MOSUNNY   95  69  42 S5        30.01S HX 100
NWS MEMPHIS      N/A     92 N/A N/A MISG        N/A
JACKSON        MOSUNNY   94  69  44 SW5       30.02S HX  99
DYERSBURG        N/A    N/A N/A N/A MISG        N/A
PARIS          SUNNY     90  70  51 VRB6      30.02S HX  95
LEXINGTON      SUNNY     90  70  51 S7        30.02S HX  95
$$

TNZ008-025-027-028-033-062-065-066-041800-
NORTH MIDDLE TENNESSEE

CITY           SKY/WX    TMP DP  RH WIND       PRES   REMARKS
NASHVILLE      PTSUNNY   93  66  40 VRB6      30.02F HX  96
CLARKSVILLE    SUNNY     90  72  55 SW8       30.01S HX  97
SMYRNA         MOSUNNY   97  71  42 W7        30.02F HX 104
COOKEVILLE     SUNNY     91  73  55 SW6       30.05S HX 100
CROSSVILLE     PTSUNNY   85  65  51 W7        30.11S
$$

TNZ061-075-076-078-094-096-097-041800-
SOUTH MIDDLE TENNESSEE

CITY           SKY/WX    TMP DP  RH WIND       PRES   REMARKS
FAYETTEVILLE     N/A     90  68  48 CALM      30.05F HX  93
TULLAHOMA      SUNNY     91  64  40 CALM      30.07S HX  93
WINCHESTER     SUNNY     91  68  46 SW7       30.05F HX  95
MCMINNVILLE    SUNNY     90  73  58 CALM      30.06F HX  98
COLUMBIA       MOSUNNY   97  70  41 CALM      30.01F HX 103
SHELBYVILLE    MOSUNNY   93  70  46 CALM      30.05S HX  99
$$

TNZ017-018-042-046-047-041800-
NORTHEAST TENNESSEE

CITY           SKY/WX    TMP DP  RH WIND       PRES   REMARKS
TRI CITIES     PTSUNNY   88  66  48 NW6       30.07F HX  90
ELIZABETHTON   SUNNY     84  66  54 NW7       30.08S
$$

TNZ012-013-036-069-073-074-041800-
CENTRAL EAST TENNESSEE

CITY           SKY/WX    TMP DP  RH WIND       PRES   REMARKS
KNOXVILLE      NOT AVBL
OAK RIDGE      MOSUNNY   89  70  53 VRB5      30.05F HX  94
GATLINBURG       N/A     88  66  48 VRB7      30.04S HX  90
MORRISTOWN     SUNNY     88  70  55 W7        30.07S HX  92
$$

TNZ083-085-099-041800-
SOUTHEAST TENNESSEE

CITY           SKY/WX    TMP DP  RH WIND       PRES   REMARKS
CHATTANOOGA    MOSUNNY   92  69  47 CALM      30.03F HX  97
$$

SKY/WX REPORTED AS FAIR MEANS FEW OR NO CLOUDS BELOW
12 THOUSAND FEET.




USA.gov is the U.S. government's official web portal to all federal, state and local government web resources and services.